Home   Weather   San Jose   Past weeks
Flag for USA

Past Weather in San Jose, California, USA — Yesterday and Last 2 Weeks

Now
62 °F

Passing clouds.


Feels Like: 62 °F
Forecast: 83 / 58 °F
Wind: No wind

Location: San Jose International Airport

Current Time: Sep 22, 2019 at 9:26:53 am

Latest Report: Sep 22, 2019 at 7:53 am


Visibility: 10 mi

Pressure: 29.93 "Hg

Humidity: 67%

Dew Point: 51 °F

Location of San JoseLocation

Past Weather in San Jose — Graph

°F

San Jose Temperature Yesterday

Maximum temperature yesterday: 86 °F (at 1:53 pm)
Minimum temperature yesterday: 59 °F (at 6:53 am)
Average temperature yesterday: 71 °F

High & Low Weather Summary for the Past Weeks

 TemperatureHumidityPressure
High96 °F (Sep 13, 3:53 pm)97% (Sep 16, 7:31 am)30.08 "Hg (Sep 16, 7:31 am)
Low56 °F (Sep 8, 6:31 am)19% (Sep 13, 3:53 pm)29.84 "Hg (Sep 15, 4:53 pm)
Average69 °F62%29.95 "Hg
* Reported Sep 7 7:53 am — Sep 22 7:53 am, San Jose. Weather by CustomWeather, © 2019

Note: Actual official high and low records may vary slightly from our data, if they occured in-between our weather recording intervals... More about our weather records

Advertising

San Jose Weather History for the Previous 24 Hours

Scroll right to see more
 ConditionsComfort  
Time TempWeatherWind HumidityBarometerVisibility
7:53 am
Sun, Sep 22
62 °FPassing clouds.No wind67%29.93 "Hg10 mi
6:53 am59 °FPassing clouds.No wind69%29.92 "Hg10 mi
5:53 am59 °FPassing clouds.No wind69%29.91 "Hg10 mi
4:53 am62 °FClear.No wind65%29.90 "Hg10 mi
3:53 am62 °FClear.No wind62%29.89 "Hg10 mi
2:53 am63 °FClear.3 mph63%29.89 "Hg10 mi
1:53 am62 °FClear.3 mph67%29.90 "Hg10 mi
12:53 am66 °FClear.3 mph61%29.90 "Hg10 mi
11:53 pm
Sat, Sep 21
67 °FClear.3 mph61%29.91 "Hg10 mi
10:53 pm69 °FClear.3 mph57%29.91 "Hg10 mi
9:53 pm71 °FClear.5 mph49%29.92 "Hg10 mi
8:53 pm73 °FClear.7 mph43%29.91 "Hg10 mi
7:53 pm74 °FClear.10 mph43%29.89 "Hg10 mi
6:53 pm76 °FSunny.16 mph42%29.88 "Hg10 mi
5:53 pm81 °FSunny.21 mph37%29.87 "Hg10 mi
4:53 pm86 °FSunny.15 mph27%29.85 "Hg10 mi
3:53 pm86 °FSunny.12 mph27%29.86 "Hg10 mi
2:53 pm86 °FPassing clouds.14 mph28%29.87 "Hg10 mi
1:53 pm86 °FPartly sunny.6 mph27%29.89 "Hg10 mi
12:53 pm84 °FPartly sunny.6 mph29%29.92 "Hg10 mi
11:53 am81 °FPassing clouds.3 mph32%29.93 "Hg10 mi
10:53 am77 °FSunny.No wind39%29.96 "Hg10 mi
9:53 am71 °FSunny.No wind47%29.96 "Hg10 mi
Weather by CustomWeather, © 2019

See weather overview